Home > Weather > Oshawa > Past weeks

Flag for Canada Weather for the Past 2 Weeks in Oshawa, Ontario, Canada

Now
39 °F

More clouds than sun.


Feels Like: 32 °F
Forecast: 28 / 39 °F
Wind: 12 mph from South

Location: Toronto Buttonville

Current Time: Feb 7, 2016 at 12:44:25 PM

Latest Report: Feb 7, 2016 at 12:00 PM


Visibility: 12 mi

Pressure: 30.01 "Hg

Humidity: 65%

Dew point: 28 °F

Location of OshawaLocation

Historic Weather in Oshawa — Graph

°F

Oshawa Temperature Yesterday

Maximum temperature yesterday: 37 °F (at 2:00 PM)
Minimum temperature yesterday: 28 °F (at 8:00 AM)
Average temperature yesterday: 33 °F

High & Low Weather Summary for the Past Weeks

 TemperatureHumidityPressure
High59 °F (Feb 3, 3:00 PM)100% (Jan 31, 6:00 PM)30.36 "Hg (Jan 31, 6:00 PM)
Low12 °F (Jan 24, 3:00 AM)34% (Feb 3, 4:00 PM)29.44 "Hg (Feb 1, 12:00 AM)
Average32 °F73%29.93 "Hg
* Reported Jan 23 11:00 AM — Feb 7 11:00 AM, Oshawa, Weather by CustomWeather, © 2016

Note: Actual official high and low records may vary slightly from our data, if they occured in-between our weather recording intervals... More about our weather records

Advertising

Oshawa Weather History for the Previous 24 Hours

 ConditionsComfort  
Time TempWeatherWind HumidityBarometerVisibility
11:00 AM
Sun, Feb 7
37 °FMostly cloudy.7 mph75%30.03 "Hg12 mi
10:00 AM36 °FOvercast.7 mph75%30.03 "Hg12 mi
9:00 AM32 °FScattered clouds.2 mph80%30.05 "Hg10 mi
8:00 AM28 °FPartly sunny.No wind86%30.07 "Hg10 mi
7:00 AM27 °FPassing clouds.2 mph86%30.09 "Hg10 mi
6:00 AM28 °FPartly cloudy.5 mph86%30.10 "Hg13 mi
5:00 AM28 °FPassing clouds.2 mph80%30.11 "Hg10 mi
4:00 AM28 °FPassing clouds.2 mph80%30.12 "Hg11 mi
3:00 AM28 °FPassing clouds.3 mph80%30.11 "Hg15 mi
2:00 AM28 °FPassing clouds.3 mph80%30.11 "Hg15 mi
1:00 AM30 °FPassing clouds.5 mph75%30.12 "Hg15 mi
12:00 AM30 °FClear.6 mph75%30.12 "Hg15 mi
11:00 PM
Sat, Feb 6
32 °FPassing clouds.7 mph64%30.13 "Hg15 mi
10:00 PM32 °FPartly cloudy.7 mph69%30.14 "Hg15 mi
9:00 PM34 °FPassing clouds.9 mph65%30.15 "Hg15 mi
8:00 PM34 °FPassing clouds.13 mph65%30.15 "Hg15 mi
7:00 PM36 °FPartly cloudy.13 mph52%30.15 "Hg15 mi
6:00 PM36 °FPassing clouds.13 mph44%30.13 "Hg15 mi
5:00 PM37 °FPartly sunny.14 mph45%30.13 "Hg15 mi
4:00 PM37 °FScattered clouds.13 mph41%30.14 "Hg15 mi
3:00 PM37 °FPartly sunny.13 mph45%30.14 "Hg15 mi
2:00 PM37 °FScattered clouds.12 mph48%30.15 "Hg15 mi
1:00 PM36 °FPartly sunny.14 mph52%30.17 "Hg15 mi
12:00 PM34 °FOvercast.12 mph60%30.20 "Hg15 mi
Weather by CustomWeather, © 2016

See weather overviewHow to use our weather pages